Flugplatz Halle-Oppin

Für EDAQ sind keine METAR/TAF Berichte vorhanden.
Es werden die Flugwettermeldungen vom Flugplatz Leipzig Halle in 19 km Entfernung angezeigt.

Bericht für EDDP

vom 07.03. um 01:50 UTC

Wind 7 kt aus 220°

Sichtweite 10 km oder mehr

gering bewölkt in 3400 ft

aufgebrochene Bewölkung in 4100 ft

Temperatur 1.0°C

Taupunkt -2.0°C

Luftfeuchtigkeit 80%

Luftdruck 1026 hPa

keine wesentliche Wetteränderung innerhalb den nächsten 2 Stunden zu erwarten

EDDP 070150Z 22007KT 9999 FEW034 BKN041 01/M02 Q1026 NOSIG

Prognose für EDDP

vom 06.03. um 23:00 UTC

Zwischen 00:00 UTC und 07:00 UTC

Wind 6 kt aus 230°

Sichtweite 10 km oder mehr

aufgebrochene Bewölkung in 4500 ft


Zwischen 07:00 und 09:00 UTC übergehend zu

Wind 8 kt aus 290°

Sichtweite 10 km oder mehr

aufgebrochene Bewölkung in 4500 ft

TAF EDDP 062300Z 0700/0724 23006KT 9999 BKN045 BECMG 0707/0709 29008KT
Impressum